Atmospheric History
12/06/2017 18:37  to  12/7/2017 18:37
Change End Date:
To complete the export process:
1) Select all of the data below
2) Copy the data to the clipboard
3) Open a word processor such as Notepad
4) Paste the data into the word processor
5) Save the file

Date/Time (MST), AirTemp, RH, Dewpoint ,AvgWindSpeed, GustWindSpeed, WindDirection, PrecipType, PrecipIntensity, PrecipAccumulation, PrecipRate
12/07/2017 18:35, 25, 79, 19 ,0, 2, NW, None, None, ,  
12/07/2017 18:30, 25, 79, 20 ,0, 2, NW, None, None, ,  
12/07/2017 18:25, 25, 79, 20 ,0, 1, NW, None, None, ,  
12/07/2017 18:15, 25, 79, 19 ,1, 2, NW, None, None, ,  
12/07/2017 18:15, 25, 79, 19 ,1, 2, NW, None, None, ,  
12/07/2017 18:05, 25, 79, 19 ,1, 2, NW, None, None, ,  
12/07/2017 18:00, 25, 78, 19 ,1, 2, NW, None, None, ,  
12/07/2017 17:55, 25, 78, 19 ,0, 2, NW, None, None, ,  
12/07/2017 17:45, 25, 78, 19 ,2, 3, NW, None, None, ,  
12/07/2017 17:45, 25, 78, 19 ,2, 3, NW, None, None, ,  
12/07/2017 17:35, 25, 78, 19 ,2, 4, NW, None, None, ,  
12/07/2017 17:30, 25, 78, 19 ,2, 2, NW, None, None, ,  
12/07/2017 17:25, 25, 78, 19 ,1, 3, NW, None, None, ,  
12/07/2017 17:15, 25, 78, 19 ,0, 2, NW, None, None, ,  
12/07/2017 17:15, 25, 78, 19 ,0, 2, NW, None, None, ,  
12/07/2017 17:05, 25, 77, 19 ,0, 1, W, None, None, ,  
12/07/2017 17:00, 25, 77, 19 ,0, 1, W, None, None, ,  
12/07/2017 16:55, 25, 77, 19 ,0, 1, W, None, None, ,  
12/07/2017 16:45, 25, 76, 19 ,0, 1, W, None, None, ,  
12/07/2017 16:45, 25, 76, 19 ,0, 1, W, None, None, ,  
12/07/2017 16:35, 25, 76, 19 ,1, 2, W, None, None, ,  
12/07/2017 16:30, 25, 76, 19 ,1, 2, W, None, None, ,  
12/07/2017 16:25, 25, 76, 19 ,0, 2, W, None, None, ,  
12/07/2017 16:15, 26, 76, 19 ,1, 2, NW, None, None, ,  
12/07/2017 16:15, 25, 76, 19 ,1, 2, W, None, None, ,  
12/07/2017 16:04, 26, 76, 19 ,0, 2, NW, None, None, ,  
12/07/2017 16:00, 26, 76, 19 ,0, 3, NW, None, None, ,  
12/07/2017 15:54, 26, 76, 19 ,1, 2, NW, None, None, ,  
12/07/2017 15:45, 26, 76, 19 ,1, 3, SW, None, None, ,  
12/07/2017 15:44, 26, 76, 19 ,1, 3, SW, None, None, ,  
12/07/2017 15:34, 26, 76, 19 ,2, 4, NW, None, None, ,  
12/07/2017 15:30, 26, 76, 19 ,2, 4, NW, None, None, ,  
12/07/2017 15:24, 26, 76, 19 ,2, 4, NW, None, None, ,  
12/07/2017 15:15, 26, 75, 19 ,1, 4, NW, None, None, ,  
12/07/2017 15:14, 26, 75, 19 ,2, 4, W, None, None, ,  
12/07/2017 15:04, 26, 75, 19 ,2, 4, NW, None, None, ,  
12/07/2017 15:00, 26, 75, 19 ,2, 6, NW, None, None, ,  
12/07/2017 14:54, 26, 75, 19 ,4, 6, NW, None, None, ,  
12/07/2017 14:45, 26, 75, 19 ,2, 4, W, None, None, ,  
12/07/2017 14:44, 26, 75, 19 ,1, 4, NW, None, None, ,  
12/07/2017 14:34, 26, 75, 19 ,4, 7, NW, None, None, ,  
12/07/2017 14:30, 26, 75, 19 ,1, 6, NW, None, None, ,  
12/07/2017 14:24, 26, 75, 19 ,4, 6, NW, None, None, ,  
12/07/2017 14:15, 26, 75, 19 ,1, 5, N, None, None, ,  
12/07/2017 14:14, 26, 75, 19 ,1, 5, NW, None, None, ,  
12/07/2017 14:04, 26, 75, 19 ,2, 6, NW, None, None, ,  
12/07/2017 14:00, 26, 75, 19 ,2, 6, N, None, None, ,  
12/07/2017 13:54, 26, 75, 19 ,1, 6, N, None, None, ,  
12/07/2017 13:45, 26, 75, 19 ,3, 4, NW, None, None, ,  
12/07/2017 13:44, 26, 75, 19 ,3, 4, NW, None, None, ,  
12/07/2017 13:34, 26, 76, 19 ,2, 4, NW, None, None, ,  
12/07/2017 13:30, 26, 76, 19 ,1, 4, NW, None, None, ,  
12/07/2017 13:24, 26, 76, 19 ,1, 6, NW, None, None, ,  
12/07/2017 13:15, 26, 76, 19 ,1, 3, W, None, None, ,  
12/07/2017 13:14, 26, 76, 19 ,1, 5, W, None, None, ,  
12/07/2017 13:04, 25, 76, 19 ,1, 4, NW, None, None, ,  
12/07/2017 13:00, 25, 76, 19 ,1, 4, S, None, None, ,  
12/07/2017 12:54, 26, 76, 19 ,0, 4, W, None, None, ,  
12/07/2017 12:45, 25, 76, 19 ,2, 6, W, None, None, ,  
12/07/2017 12:43, 25, 76, 19 ,2, 6, W, None, None, ,  
12/07/2017 12:33, 25, 76, 19 ,1, 6, SW, None, None, ,  
12/07/2017 12:30, 25, 76, 19 ,2, 4, W, None, None, ,  
12/07/2017 12:23, 25, 76, 19 ,1, 4, SW, None, None, ,  
12/07/2017 12:15, 25, 76, 19 ,3, 4, NW, None, None, ,  
12/07/2017 12:13, 25, 76, 19 ,2, 4, W, None, None, ,  
12/07/2017 12:03, 25, 76, 19 ,3, 6, NW, None, None, ,  
12/07/2017 12:00, 25, 76, 19 ,2, 4, NW, None, None, ,  
12/07/2017 11:53, 25, 76, 19 ,1, 3, NW, None, None, ,  
12/07/2017 11:45, 25, 76, 19 ,1, 6, NW, None, None, ,  
12/07/2017 11:43, 25, 76, 19 ,1, 6, W, None, None, ,  
12/07/2017 11:33, 25, 77, 19 ,2, 6, NW, None, None, ,  
12/07/2017 11:30, 25, 77, 19 ,3, 6, NW, None, None, ,  
12/07/2017 11:23, 25, 77, 19 ,1, 6, W, None, None, ,  
12/07/2017 11:15, 25, 77, 19 ,3, 7, NW, None, None, ,  
12/07/2017 11:13, 25, 77, 19 ,3, 7, NW, None, None, ,  
12/07/2017 11:03, 25, 78, 19 ,2, 4, NW, None, None, ,  
12/07/2017 11:00, 25, 78, 19 ,2, 4, NW, None, None, ,  
12/07/2017 10:53, 24, 78, 19 ,2, 4, S, None, None, ,  
12/07/2017 10:45, 24, 78, 19 ,1, 4, W, None, None, ,  
12/07/2017 10:43, 24, 78, 19 ,3, 4, NW, None, None, ,  
12/07/2017 10:33, 24, 79, 19 ,1, 3, W, None, None, ,  
12/07/2017 10:30, 24, 79, 19 ,1, 3, W, None, None, ,  
12/07/2017 10:23, 24, 79, 19 ,1, 4, NW, None, None, ,  
12/07/2017 10:15, 24, 79, 19 ,2, 4, NW, None, None, ,  
12/07/2017 10:13, 24, 80, 19 ,1, 4, SW, None, None, ,  
12/07/2017 10:03, 24, 80, 19 ,1, 4, W, None, None, ,  
12/07/2017 10:00, 24, 80, 19 ,1, 4, NW, None, None, ,  
12/07/2017 09:53, 24, 81, 19 ,1, 4, NW, None, None, ,  
12/07/2017 09:45, 24, 81, 19 ,1, 2, NW, None, None, ,  
12/07/2017 09:43, 24, 81, 19 ,1, 2, W, None, None, ,  
12/07/2017 09:32, 24, 82, 19 ,2, 2, W, None, None, ,  
12/07/2017 09:30, 24, 82, 19 ,0, 2, NW, None, None, ,  
12/07/2017 09:22, 24, 82, 19 ,0, 1, NW, None, None, ,  
12/07/2017 09:15, 24, 82, 19 ,1, 1, NW, None, None, ,  
12/07/2017 09:12, 24, 82, 19 ,0, 1, NW, None, None, ,  
12/07/2017 09:02, 24, 83, 19 ,1, 2, NW, None, None, ,  
12/07/2017 09:00, 24, 83, 19 ,1, 2, NW, None, None, ,  
12/07/2017 08:52, 23, 83, 19 ,0, 2, NW, None, None, ,  
12/07/2017 08:45, 23, 83, 19 ,1, 2, NW, None, None, ,  
12/07/2017 08:42, 23, 83, 19 ,0, 2, NW, None, None, ,  
12/07/2017 08:32, 23, 83, 19 ,0, 1, NW, None, None, ,  
12/07/2017 08:30, 23, 83, 19 ,0, 4, NW, None, None, ,  
12/07/2017 08:22, 23, 83, 19 ,1, 3, NW, None, None, ,  
12/07/2017 08:15, 23, 83, 19 ,1, 2, NW, None, None, ,  
12/07/2017 08:12, 23, 83, 19 ,1, 2, NW, None, None, ,  
12/07/2017 08:02, 23, 83, 19 ,1, 2, NW, None, None, ,  
12/07/2017 08:00, 23, 83, 19 ,1, 2, W, None, None, ,  
12/07/2017 07:52, 23, 83, 19 ,0, 1, W, None, None, ,  
12/07/2017 07:45, 23, 83, 19 ,0, 1, W, None, None, ,  
12/07/2017 07:42, 23, 83, 19 ,0, 0, W, None, None, ,  
12/07/2017 07:32, 23, 83, 19 ,0, 0, W, None, None, ,  
12/07/2017 07:30, 23, 83, 19 ,0, 0, W, None, None, ,  
12/07/2017 07:22, 23, 83, 19 ,0, 2, W, None, None, ,  
12/07/2017 07:15, 23, 83, 19 ,1, 2, NW, None, None, ,  
12/07/2017 07:12, 23, 83, 19 ,1, 2, N, None, None, ,  
12/07/2017 07:02, 24, 83, 19 ,0, 2, W, None, None, ,  
12/07/2017 07:00, 24, 83, 19 ,0, 2, SW, None, None, ,  
12/07/2017 06:52, 24, 83, 19 ,0, 2, NW, None, None, ,  
12/07/2017 06:45, 24, 83, 19 ,1, 1, W, None, None, ,  
12/07/2017 06:42, 24, 83, 19 ,0, 1, W, None, None, ,  
12/07/2017 06:32, 24, 83, 19 ,0, 1, SW, None, None, ,  
12/07/2017 06:30, 24, 83, 19 ,0, 0, SW, None, None, ,  
12/07/2017 06:22, 23, 83, 19 ,0, 1, SW, None, None, ,  
12/07/2017 06:15, 23, 83, 19 ,0, 2, SW, None, None, ,  
12/07/2017 06:11, 24, 83, 19 ,0, 2, SW, None, None, ,  
12/07/2017 06:01, 24, 84, 19 ,0, 1, NW, None, None, ,  
12/07/2017 06:00, 24, 84, 19 ,0, 1, NW, None, None, ,  
12/07/2017 05:51, 24, 84, 19 ,0, 1, NW, None, None, ,  
12/07/2017 05:45, 24, 84, 19 ,1, 1, NW, None, None, ,  
12/07/2017 05:41, 24, 84, 19 ,1, 1, NW, None, None, ,  
12/07/2017 05:31, 24, 84, 20 ,0, 1, W, None, None, ,  
12/07/2017 05:30, 24, 84, 20 ,0, 1, W, None, None, ,  
12/07/2017 05:21, 24, 84, 20 ,0, 1, W, None, None, ,  
12/07/2017 05:15, 24, 84, 20 ,0, 1, NW, None, None, ,  
12/07/2017 05:11, 24, 84, 20 ,0, 3, NW, None, None, ,  
12/07/2017 05:01, 24, 85, 20 ,1, 2, NW, None, None, ,  
12/07/2017 05:00, 24, 85, 20 ,1, 2, NW, None, None, ,  
12/07/2017 04:51, 24, 85, 20 ,1, 2, W, None, None, ,  
12/07/2017 04:45, 24, 85, 20 ,0, 2, W, None, None, ,  
12/07/2017 04:41, 24, 85, 20 ,0, 2, NW, None, None, ,  
12/07/2017 04:31, 24, 85, 20 ,1, 2, W, None, None, ,  
12/07/2017 04:30, 24, 85, 20 ,1, 2, NW, None, None, ,  
12/07/2017 04:21, 24, 85, 20 ,0, 1, W, None, None, ,  
12/07/2017 04:15, 24, 85, 20 ,0, 1, W, None, None, ,  
12/07/2017 04:11, 24, 85, 20 ,0, 1, W, None, None, ,  
12/07/2017 04:01, 24, 85, 20 ,0, 1, W, None, None, ,  
12/07/2017 04:00, 24, 85, 20 ,1, 1, W, None, None, ,  
12/07/2017 03:51, 24, 85, 20 ,0, 1, W, None, None, ,  
12/07/2017 03:45, 24, 85, 20 ,0, 1, W, None, None, ,  
12/07/2017 03:41, 24, 85, 20 ,0, 0, W, None, None, ,  
12/07/2017 03:31, 24, 85, 20 ,0, 2, NW, None, None, ,  
12/07/2017 03:30, 24, 85, 20 ,0, 2, NW, None, None, ,  
12/07/2017 03:21, 24, 85, 20 ,0, 2, W, None, None, ,  
12/07/2017 03:15, 24, 85, 20 ,0, 3, NW, None, None, ,  
12/07/2017 03:11, 24, 85, 20 ,1, 3, NW, None, None, ,  
12/07/2017 03:01, 24, 85, 20 ,1, 2, N, None, None, ,  
12/07/2017 03:00, 24, 85, 20 ,0, 1, N, None, None, ,  
12/07/2017 02:50, 24, 85, 20 ,0, 2, N, None, None, ,  
12/07/2017 02:45, 24, 85, 20 ,1, 4, NW, None, None, ,  
12/07/2017 02:40, 24, 85, 20 ,1, 4, N, None, None, ,  
12/07/2017 02:30, 24, 85, 20 ,1, 2, NW, None, None, ,  
12/07/2017 02:30, 24, 85, 20 ,0, 1, NW, None, None, ,  
12/07/2017 02:20, 24, 85, 20 ,0, 1, W, None, None, ,  
12/07/2017 02:15, 24, 85, 20 ,0, 2, NW, None, None, ,  
12/07/2017 02:10, 24, 85, 20 ,1, 4, NW, None, None, ,  
12/07/2017 02:00, 24, 85, 20 ,1, 3, NW, None, None, ,  
12/07/2017 02:00, 24, 85, 20 ,1, 3, NW, None, None, ,  
12/07/2017 01:50, 24, 85, 20 ,1, 2, N, None, None, ,  
12/07/2017 01:45, 24, 85, 20 ,1, 1, N, None, None, ,  
12/07/2017 01:40, 24, 85, 20 ,0, 1, NW, None, None, ,  
12/07/2017 01:30, 24, 85, 20 ,0, 1, NW, None, None, ,  
12/07/2017 01:30, 24, 85, 20 ,0, 1, NW, None, None, ,  
12/07/2017 01:20, 24, 85, 20 ,1, 3, NW, None, None, ,  
12/07/2017 01:15, 24, 85, 21 ,0, 2, NW, None, None, ,  
12/07/2017 01:10, 24, 85, 20 ,0, 2, NW, None, None, ,  
12/07/2017 01:00, 24, 85, 20 ,0, 1, NW, None, None, ,  
12/07/2017 01:00, 24, 85, 20 ,0, 1, NW, None, None, ,  
12/07/2017 00:50, 24, 85, 21 ,0, 2, NW, None, None, ,  
12/07/2017 00:45, 24, 85, 21 ,1, 2, NW, None, None, ,  
12/07/2017 00:40, 24, 85, 21 ,0, 1, NW, None, None, ,  
12/07/2017 00:30, 24, 85, 21 ,0, 0, W, None, None, ,  
12/07/2017 00:30, 24, 85, 21 ,0, 0, W, None, None, ,  
12/07/2017 00:20, 24, 85, 21 ,0, 2, W, None, None, ,  
12/07/2017 00:15, 24, 85, 21 ,1, 2, NW, None, None, ,  
12/07/2017 00:10, 25, 85, 21 ,0, 1, NW, None, None, ,  
12/07/2017 00:00, 25, 85, 21 ,0, 0, NW, None, None, ,  
12/07/2017 00:00, 25, 85, 21 ,0, 0, NW, None, None, ,  
12/06/2017 23:50, 25, 85, 21 ,0, 0, NW, None, None, ,  
12/06/2017 23:45, 25, 85, 21 ,0, 0, NW, None, None, ,  
12/06/2017 23:39, 25, 85, 21 ,0, 1, NW, None, None, ,  
12/06/2017 23:30, 25, 85, 21 ,0, 1, NW, None, None, ,  
12/06/2017 23:29, 25, 85, 21 ,0, 1, NW, None, None, ,  
12/06/2017 23:19, 25, 85, 21 ,1, 2, NW, None, None, ,  
12/06/2017 23:15, 25, 85, 21 ,1, 2, NW, None, None, ,  
12/06/2017 23:09, 25, 85, 21 ,0, 1, N, None, None, ,  
12/06/2017 23:00, 25, 85, 21 ,0, 2, W, None, None, ,  
12/06/2017 22:59, 25, 85, 21 ,0, 2, W, None, None, ,  
12/06/2017 22:49, 25, 85, 21 ,0, 2, NW, None, None, ,  
12/06/2017 22:45, 25, 85, 21 ,0, 2, NW, None, None, ,  
12/06/2017 22:39, 25, 85, 21 ,1, 3, NW, None, None, ,  
12/06/2017 22:30, 25, 85, 21 ,1, 1, NW, None, None, ,  
12/06/2017 22:29, 25, 85, 21 ,0, 1, NW, None, None, ,  
12/06/2017 22:19, 25, 85, 21 ,0, 1, N, None, None, ,  
12/06/2017 22:15, 25, 85, 21 ,0, 2, N, None, None, ,  
12/06/2017 22:09, 25, 85, 21 ,0, 2, NW, None, None, ,  
12/06/2017 22:00, 25, 85, 21 ,0, 2, NW, None, None, ,  
12/06/2017 21:59, 25, 85, 21 ,0, 2, NW, None, None, ,  
12/06/2017 21:49, 25, 85, 21 ,0, 2, NW, None, None, ,  
12/06/2017 21:45, 25, 85, 21 ,1, 2, NW, None, None, ,  
12/06/2017 21:39, 25, 85, 21 ,1, 2, NW, None, None, ,  
12/06/2017 21:30, 25, 85, 21 ,1, 2, NW, None, None, ,  
12/06/2017 21:29, 25, 85, 21 ,2, 2, NW, None, None, ,  
12/06/2017 21:19, 25, 85, 21 ,1, 2, NW, None, None, ,  
12/06/2017 21:15, 25, 85, 21 ,0, 0, SW, None, None, ,  
12/06/2017 21:09, 25, 85, 21 ,0, 0, SW, None, None, ,  
12/06/2017 21:00, 25, 85, 21 ,0, 0, NW, None, None, ,  
12/06/2017 20:59, 25, 85, 21 ,0, 0, N, None, None, ,  
12/06/2017 20:49, 25, 85, 21 ,0, 0, N, None, None, ,  
12/06/2017 20:45, 25, 85, 21 ,0, 0, N, None, None, ,  
12/06/2017 20:39, 25, 84, 21 ,0, 0, N, None, None, ,  
12/06/2017 20:30, 25, 84, 21 ,0, 0, N, None, None, ,  
12/06/2017 20:28, 25, 84, 21 ,0, 0, N, None, None, ,  
12/06/2017 20:18, 25, 84, 21 ,0, 0, N, None, None, ,  
12/06/2017 20:15, 25, 84, 21 ,0, 0, N, None, None, ,  
12/06/2017 20:08, 25, 83, 21 ,0, 0, N, None, None, ,  
12/06/2017 20:00, 25, 83, 21 ,0, 0, N, None, None, ,  
12/06/2017 19:58, 25, 83, 21 ,0, 0, N, None, None, ,  
12/06/2017 19:48, 25, 82, 21 ,0, 0, N, None, None, ,  
12/06/2017 19:45, 25, 82, 20 ,0, 1, NW, None, None, ,  
12/06/2017 19:38, 25, 82, 20 ,0, 1, NW, None, None, ,  
12/06/2017 19:30, 25, 82, 20 ,1, 1, W, None, None, ,  
12/06/2017 19:28, 25, 82, 20 ,1, 1, W, None, None, ,  
12/06/2017 19:18, 25, 82, 20 ,0, 2, NW, None, None, ,  
12/06/2017 19:15, 25, 82, 20 ,0, 3, NW, None, None, ,  
12/06/2017 19:08, 25, 82, 21 ,1, 3, W, None, None, ,  
12/06/2017 19:00, 26, 81, 21 ,0, 0, N, None, None, ,  
12/06/2017 18:58, 26, 81, 21 ,0, 0, N, None, None, ,  
12/06/2017 18:48, 25, 81, 20 ,0, 2, N, None, None, ,  
12/06/2017 18:45, 26, 81, 20 ,1, 3, NW, None, None, ,  
12/06/2017 18:38, 26, 81, 20 ,1, 2, NW, None, None, ,  
Change End Date:

Copyright © 1998-2015 Vaisala, Inc.
All Rights Reserved
Send comments about the data to:
SCAN Web ® is a registered trademark of Vaisala, Inc.
SCAN Web Version 6.0